Regional Weather Roundup
Issued by NWS

Home | Current Version | Previous Version | Text Only | Print | Product List | Glossary On
Versions: 1 2 3 4 5 6 7 8 9 10 11 12 13 14 15 16 17 18 19 20 21 22 23 24 25 26 27 28 29 30 31 32 33 34 35 36 37 38 39 40 41 42 43 44 45 46 47 48 49 50
000
ASUS43 KMKX 280620
RWRWI

WISCONSIN REGIONAL WEATHER ROUNDUP
NATIONAL WEATHER SERVICE MILWAUKEE/SULLIVAN WI
1200 AM CST SAT FEB 28 2015

NOTE: "FAIR" INDICATES FEW OR NO CLOUDS BELOW 12,000 FEET WITH NO
SIGNIFICANT WEATHER AND/OR OBSTRUCTIONS TO VISIBILITY.

WIZ001-002-006>008-014>016-023>028-280700-
NORTHWEST WISCONSIN

CITY           SKY/WX    TMP DP  RH WIND       PRES   REMARKS
SUPERIOR ARPT  CLEAR      6  -4  63 SW7       30.48R WCI  -6
6HR MIN TEMP:   6; 6HR MAX TEMP:  17;

ASHLAND        CLEAR      5  -6  60 SW7       30.47R WCI  -7
6HR MIN TEMP:   4; 6HR MAX TEMP:  15;

HAYWARD        CLEAR     -5 -11  75 CALM      30.47R
6HR MIN TEMP:  -5; 6HR MAX TEMP:  12;

SIREN          CLEAR      5  -2  71 SW6       30.50S WCI  -5
6HR MIN TEMP:   3; 6HR MAX TEMP:  13;

CUMBERLAND     CLEAR      0  -8  71 SW8       30.48S WCI -15
RICE LAKE      CLEAR     -1  -5  81 S3        30.52R
6HR MIN TEMP:  -1; 6HR MAX TEMP:  12;

CHETEK         CLEAR     -1  -5  83 CALM      30.52R
6HR MIN TEMP:  -1; 6HR MAX TEMP:  11;

LADYSMITH      CLEAR      1  -3  82 S3        30.51S
6HR MIN TEMP:   0; 6HR MAX TEMP:  11;

EAU CLAIRE     CLEAR      0  -7  72 SW6       30.54S WCI -12
6HR MIN TEMP:   0; 6HR MAX TEMP:  11;

MENOMONIE      CLEAR      3  -4  72 S5        30.55S WCI  -6
6HR MIN TEMP:   2; 6HR MAX TEMP:  12;

NEW RICHMOND   CLEAR      1  -4  78 S6        30.53R WCI -10
6HR MIN TEMP:   1; 6HR MAX TEMP:  11;

OSCEOLA        CLEAR      1  -4  78 S7        30.55S WCI -12
6HR MIN TEMP:   1; 6HR MAX TEMP:  14;

$$

WIZ003>005-009-010-017-018-280700-
NORTH CENTRAL WISCONSIN

CITY           SKY/WX    TMP DP  RH WIND       PRES   REMARKS
MANITOWISH WTR CLEAR     -2  -9  73 SW3       30.42R
6HR MIN TEMP:  -2; 6HR MAX TEMP:  11;

ARBOR VITAE    CLEAR     -3 -10  70 CALM      30.42S
6HR MIN TEMP:  -6; 6HR MAX TEMP:  14;

WOODRUFF       CLEAR     -3 -10  70 CALM      30.42S
6HR MIN TEMP:  -6; 6HR MAX TEMP:  14;

RHINELANDER    CLEAR     -4  -9  79 W5        30.43S WCI -15
6HR MIN TEMP:  -4; 6HR MAX TEMP:   8;

EAGLE RIVER    CLEAR     -4 -12  68 CALM      30.42R
6HR MIN TEMP:  -4; 6HR MAX TEMP:  10;

LAND O LAKES   CLEAR    -12 -18  76 CALM      30.41S
6HR MIN TEMP: -12; 6HR MAX TEMP:  13;

PHILLIPS       CLEAR      1  -4  77 SW5       30.45S WCI  -8
6HR MIN TEMP:   1; 6HR MAX TEMP:  10;

TOMAHAWK       CLEAR     -5  -9  81 CALM      30.46S
6HR MIN TEMP:  -8; 6HR MAX TEMP:  11;

MEDFORD        PTCLDY    -1  -6  77 SW3       30.47S
6HR MIN TEMP:  -1; 6HR MAX TEMP:   7;

MERRILL        CLEAR    -11 -16  77 CALM      30.48S
6HR MIN TEMP: -12; 6HR MAX TEMP:   9;

$$

WIZ029-030-035-036-043>047-280700-
CENTRAL WISCONSIN

CITY           SKY/WX    TMP DP  RH WIND       PRES   REMARKS
WAUSAU         CLEAR      2  -7  66 W6        30.50R WCI  -9
6HR MIN TEMP:   0; 6HR MAX TEMP:  11;

MOSINEE        PTCLDY     0  -6  78 SW6       30.52R WCI -12
MARSHFIELD     PTCLDY     0  -9  65 SW7       30.51S WCI -13
6HR MIN TEMP:   0; 6HR MAX TEMP:  10;

STEVENS POINT  PTCLDY     3  -8  58 W7        30.54S WCI  -9
6HR MIN TEMP:   1; 6HR MAX TEMP:  11;

WAUPACA        FAIR       5  -6  58 SW7       30.57S WCI  -7
6HR MIN TEMP:   5; 6HR MAX TEMP:  15;

WAUTOMA        CLEAR     -3 -10  72 CALM      30.59R
6HR MIN TEMP:  -3; 6HR MAX TEMP:  13;

WISC RAPIDS    CLEAR      2  -8  63 SW7       30.56S WCI -11
6HR MIN TEMP:  -2; 6HR MAX TEMP:  13;

CAMP DOUGLAS   CLEAR      1  -7  69 SW6       30.58R WCI -10
6HR MIN TEMP:   1; 6HR MAX TEMP:  11;

$$

WIZ011>013-019>022-031-037>040-048>050-280700-
NORTHEAST WISCONSIN

CITY           SKY/WX    TMP DP  RH WIND       PRES   REMARKS
ANTIGO         CLEAR     -1  -7  77 W5        30.47R WCI -12
6HR MIN TEMP:  -3; 6HR MAX TEMP:   7;

SHAWANO        CLEAR      8  -4  56 SW5       30.55R WCI   0
6HR MIN TEMP:   8; 6HR MAX TEMP:  16;

OCONTO         CLEAR      1  -8  66 SW3       30.55S
6HR MIN TEMP:   1; 6HR MAX TEMP:  14;

STURGEON BAY   CLEAR      7  -8  51 SW8       30.56R WCI  -6
6HR MIN TEMP:   7; 6HR MAX TEMP:  14;

GREEN BAY      CLEAR      8  -4  58 SW5       30.57R WCI   0
6HR MIN TEMP:   8; 6HR MAX TEMP:  15;

MANITOWOC      CLEAR      7  -1  70 W12       30.58S WCI  -8
6HR MIN TEMP:   7; 6HR MAX TEMP:  14;

APPLETON       CLEAR      5  -6  61 SW7       30.56S WCI  -7
CLINTONVILLE   CLEAR      7  -6  56 SW5       30.55S WCI  -2
OSHKOSH        CLEAR      5  -5  63 SW5       30.58R WCI  -4
6HR MIN TEMP:   5; 6HR MAX TEMP:  14;

$$

WIZ032>034-041-042-053>061-280700-
SOUTHWEST WISCONSIN

CITY           SKY/WX    TMP DP  RH WIND       PRES   REMARKS
LA CROSSE      CLEAR      1  -6  72 SE5       30.62S WCI  -9
6HR MIN TEMP:   0; 6HR MAX TEMP:  11;

SPARTA         CLEAR    -10 -15  78 CALM      30.60S
6HR MIN TEMP: -10; 6HR MAX TEMP:  11;

VIROQUA        CLEAR     -2  -8  78 SW5       30.55S WCI -13
6HR MIN TEMP:  -3; 6HR MAX TEMP:   8;

BOSCOBEL       FAIR      -8 -12  83 CALM      30.65R
6HR MIN TEMP:  -8; 6HR MAX TEMP:  11;

PRAIRIE DU CHI PTCLDY   -10 -16  74 CALM      30.65R
6HR MIN TEMP: -10; 6HR MAX TEMP:   7;

PLATTEVILLE    FAIR      -3  -8  78 S5        30.61S WCI -14
6HR MIN TEMP:  -4; 6HR MAX TEMP:   4;

$$

WIZ056-057-062-063-064-067-068-280700-
SOUTH CENTRAL WISCONSIN

CITY           SKY/WX    TMP DP  RH WIND       PRES   REMARKS
REEDSBURG      CLEAR      3  -6  66 W6        30.60R WCI  -8
6HR MIN TEMP:   3; 6HR MAX TEMP:  13;

BARABOO/DELLS  CLEAR      2  -7  66 CALM      30.59R
6HR MIN TEMP:   2; 6HR MAX TEMP:  12;

LONE ROCK      CLEAR     -8 -13  78 CALM      30.63F
6HR MIN TEMP:  -9; 6HR MAX TEMP:  10;

MINERAL POINT  PTCLDY     3  -6  66 SW5       30.58S WCI  -6
MADISON        PTCLDY     1  -8  66 CALM      30.60S
6HR MIN TEMP:   1; 6HR MAX TEMP:  11;

MIDDLETON      PTCLDY     0  -9  63 SW3       30.60S
6HR MIN TEMP:  -1; 6HR MAX TEMP:  12;

WATERTOWN      CLEAR      1  -6  71 SW3       30.60S
6HR MIN TEMP:   1; 6HR MAX TEMP:  10;

MONROE         MOCLDY     0  -6  78 SW8       30.59S WCI -15
JANESVILLE     PTCLDY     0  -8  71 SW5       30.63S WCI -10
$$

WIZ051-052-058>065-066-070>072-280700-
SOUTHEAST WISCONSIN

CITY           SKY/WX    TMP DP  RH WIND       PRES   REMARKS
MILWAUKEE      CLEAR      4  -7  60 W8        30.63R WCI  -9
6HR MIN TEMP:   4; 6HR MAX TEMP:  13;

WAUKESHA       CLEAR      3  -6  66 SW7       30.61S WCI  -9
MILWAUKEE/TIMM CLEAR      5  -6  61 SW7       30.63R WCI  -7
RACINE         CLEAR      3  -7  63 W9        30.64F WCI -12
6HR MIN TEMP:   2; 6HR MAX TEMP:  11;

BURLINGTON     CLEAR     -6 -10  83 SW6       30.62S WCI -19
6HR MIN TEMP: -10; 6HR MAX TEMP:   6;

KENOSHA        CLEAR     -1  -8  72 SW8       30.63S WCI -15
6HR MIN TEMP:  -7; 6HR MAX TEMP:   7;

FOND DU LAC    CLEAR      4  -6  63 SW7       30.59R WCI  -8
6HR MIN TEMP:   4; 6HR MAX TEMP:  14;

SHEBOYGAN      CLEAR      3  -6  66 W6        30.59R WCI  -8
6HR MIN TEMP:   3; 6HR MAX TEMP:  11;

WEST BEND      FAIR       5  -6  61 SW7       30.59R WCI  -7
JUNEAU         CLEAR      1  -6  71 SW5       30.60S WCI  -9
6HR MIN TEMP:   0; 6HR MAX TEMP:  11;

$$

LSZ147-162-280700-
LAKE SUPERIOR

STATION/POSITION TIME  TEMP    WIND        PRES    WAVE
                       AIR SEA DIR/SP/G            HT/PER
                 (UTC) (F)     (DEG/KT/KT) (MB)    (FT/S)
DEVILS ISLAND    0600   13     230/ 19/ 21 1032.6R
PORT WING        0540   11     190/  9/ 13 1031.8R
SAXON HARBOR     0500   10     190/  4/  8 1031.5S
$$

LMZ867-665-643>646-280700-
LAKE MICHIGAN

STATION/POSITION TIME  TEMP    WIND        PRES    WAVE


USA.gov is the U.S. government's official web portal to all federal, state and local government web resources and services.